Wind_Speed
15 14 9 4 5 6 5 5 6 6 7 9 8 8 9 10 10 9 9 9 10 10
16 15 13 7 8 8 8 9 12 13 13 13 11 12 11 11 11 12 12 12 12 12
18 14 14 13 15 14 15 16 13 13 13 13 12 13 13 14 12 13 15 15 14 13
16 16 18 19 19 21 19 19 18 17 16 15 14 16 17 17 15 14 15 17 16 15
18 18 18 20 21 19 18 19 19 19 16 14 16 16 17 19 19 17 17 18 16 16
21 22 22 20 21 19 19 20 18 19 18 18 18 17 19 21 21 19 19 21 21 18
20 22 20 19 16 18 19 18 17 16 16 17 18 21 22 23 22 21 22 24 23 22
15 17 19 15 17 19 19 19 20 20 20 21 21 22 24 24 23 25 23 24 25 21
15 18 18 19 21 23 22 20 20 22 23 23 24 25 24 20 20 21 24 24 22 20
14 16 16 17 20 22 22 20 19 20 21 21 22 22 22 21 19 19 22 23 21 16
15 13 17 16 17 18 20 19 19 19 20 20 20 20 20 19 16 17 18 17 15 15
7 9 12 17 21 22 21 20 19 18 16 14 12 13 12 10 12 14 13 14 12 12
18 21 25 23 21 18 16 16 15 14 13 11 8 8 8 8 11 10 10 10 11 11
25 22 18 16 14 14 15 15 13 11 11 8 6 7 8 7 7 9 9 8 8 7
Wind_Direction
199 205 221 226 240 230 238 268 281 256 275 285 285 300 298 304 302 299 294 285 278 273
200 209 223 226 228 237 251 240 230 250 274 277 276 280 284 288 284 287 293 291 282 279
206 206 212 215 222 205 226 244 247 254 264 262 262 276 287 292 286 271 280 290 284 277
214 219 220 223 226 232 239 241 253 254 263 265 264 270 278 286 288 279 269 274 282 272
218 225 229 234 239 243 239 236 242 250 252 253 256 266 269 275 278 276 272 268 266 270
229 231 231 234 239 239 233 235 236 244 243 246 253 257 256 263 266 264 260 262 260 260
232 237 241 236 239 241 233 238 229 235 248 253 256 254 254 255 261 260 263 263 265 259
235 238 234 222 229 231 232 237 235 240 244 247 253 255 256 257 261 266 264 267 269 261
223 225 216 219 227 236 240 248 250 250 253 255 257 262 265 267 261 264 266 267 266 273
217 239 235 240 249 254 256 255 260 264 265 268 268 269 266 260 261 264 265 269 267 266
228 252 264 263 264 263 265 268 270 273 274 275 275 271 268 264 260 258 260 259 265 273
239 243 262 264 262 262 264 269 272 276 279 281 276 278 265 257 255 251 253 268 270 268
258 243 240 244 249 258 269 276 278 285 291 293 282 270 280 260 266 261 259 253 259 265
246 239 241 244 257 271 278 281 284 287 292 293 274 270 270 267 266 259 256 246 255 273
Height
1521 1521 1523 1524 1526 1527 1529 1530 1530 1531 1532 1533 1533 1533 1533 1533 1532 1531 1531 1531 1531 1531
1520 1521 1521 1522 1523 1524 1524 1526 1528 1528 1528 1529 1530 1531 1532 1531 1529 1528 1528 1528 1528 1528
1517 1519 1520 1521 1522 1522 1522 1522 1523 1524 1524 1526 1526 1526 1526 1527 1525 1524 1524 1524 1523 1523
1515 1517 1518 1519 1519 1520 1520 1520 1520 1521 1522 1523 1523 1524 1524 1524 1524 1522 1522 1521 1521 1519
1511 1512 1513 1515 1516 1517 1518 1519 1520 1520 1520 1520 1521 1520 1521 1521 1520 1519 1518 1517 1517 1517
1508 1509 1509 1511 1513 1513 1514 1514 1515 1516 1516 1516 1518 1517 1516 1516 1515 1513 1513 1513 1512 1511
1504 1505 1506 1507 1510 1511 1510 1510 1511 1512 1513 1513 1513 1513 1512 1512 1511 1510 1508 1507 1508 1507
1502 1503 1503 1504 1507 1506 1505 1506 1507 1508 1508 1507 1506 1506 1507 1507 1507 1506 1505 1503 1503 1503
1496 1500 1501 1501 1502 1504 1503 1502 1503 1504 1504 1504 1502 1500 1501 1503 1501 1500 1500 1499 1499 1499
1490 1499 1500 1500 1501 1501 1502 1499 1498 1498 1498 1497 1496 1495 1496 1497 1497 1496 1494 1493 1493 1495
1487 1493 1497 1498 1499 1499 1499 1497 1496 1495 1494 1492 1491 1490 1490 1491 1491 1491 1490 1489 1489 1490
1485 1489 1494 1495 1495 1494 1494 1491 1489 1488 1488 1488 1487 1486 1485 1486 1487 1487 1486 1485 1486 1486
1487 1482 1484 1487 1488 1488 1488 1486 1485 1483 1484 1483 1484 1484 1484 1484 1484 1483 1483 1484 1483 1483
1478 1481 1482 1483 1483 1483 1484 1483 1483 1483 1482 1481 1481 1482 1482 1482 1481 1481 1481 1481 1480 1479